Погода в Апуке

Погода в Апуке : погода сейчас, прогноз погоды и архив. Всё, что Вы хотите узнать о погоде в Апуке!

Хотите узнать прогноз погоды в Апуке? Тогда Вам сюда: Погода в Апуке

Поиск расширенной информации на нашем сайте:

Другие новости

Новости СМИ2

Главная страница сайта

Новости сайта

03.07.2017

Напоминаем, что на нашем специализированном сайте Метеоцентр.Азия вы можете получить высокодетализированные автоматические прогнозы погоды по пунктам России, СНГ и мира в авиационном формате (включающие направление и скорость ветра, видимость, явления погоды, количество и форму облачности, нижнюю и верхнюю границу облачности).


Погода в Апуке - сегодня

Время (UTC), дата Ветер
(°,м/с) 
Видим.   Явления Облачность Т
(°С)
Тd
(°С)
f(%) Тe
(°С)
Pmin
(гПа)
dP
(гПа)
Po
(мм)
O2
(г/м3)
Тmin Tmax R s Состояние
почвы
00 14.06.18 240 (ЮЗ) 20000 м    ясно 
+11.1 +8.3 83 +10  1021.4  -0.1  766  295           
03 14.06.18 210 (ЮЗ) 20000 м    ясно 
+11.6 +9.4 86 +11  1020  -1.4  765  294           
06 14.06.18 230 (ЮЗ) 20000 м    ясно 
+12.1 +8.7 80 +11  1019.9  -0.1  764  293           
09 14.06.18 200 (Ю) 20000 м    ясно 
+9.5 +7.8 89 +9  1019.4  -0.5  764  296    +13       
12 14.06.18 190 (Ю) 20000 м    ясно 
+8.6 +7.3 92 +7  1019.2  -0.2  764  297           
15 14.06.18 180 (Ю) 20000 м    ясно 
+7.6 +6.3 91 +6  1018.6  -0.5  764  298           
18 14.06.18 080 (В) 20000 м    ясно 
+7.4 +5.1 85 +7  1018.8  0.1  764  299           
00 15.06.18 220 (ЮЗ) 20000 м    ясно 
+10.4 +7.5 82 +10  1017.5  -0.6  763  295           
03 15.06.18 230 (ЮЗ) 20000 м    10/10 600 м 
[Sc]
+8.9 +6.8 87 +8  1017.1  -0.4  762  296           
06 15.06.18 230 (ЮЗ) 20000 м    10/10 600 м 
[Sc]
+8.1 +6.6 90 +7  1016.2  -0.9  762  297           
12 15.06.18 240 (ЮЗ) 20000 м    10/10 600 м 
[Sc]
+6.9 +6 94 +7  1014.8  -0.8  761  298           
15 15.06.18 050 (СВ) 20000 м    10/10 600 м 
[Sc]
+6.2 +4.9 91 +6  1013.7  -1.1  760  299           
18 15.06.18 030 (СВ) 20000 м    10/10 600 м 
[Sc]
+6.2 +4.8 91 +6  1012.6  -1.1  759  298           
00 16.06.18 260 (З) 20000 м    10/10 600 м 
[Sc]
+9.2 +7.1 87 +9  1012.1  -0.8  759  295           
03 16.06.18 250 (З) 20000 м    8/8 600 м 
[Sc]
+11.4 +8.6 83 +10  1011.3  -0.8  758  292           
06 16.06.18 230 (ЮЗ) 20000 м    6/6 600 м 
[Sc]
+9.6 +7.1 84 +9  1010.9  -0.4  758  294           
12 16.06.18 250 (З) 20000 м    10/10 600 м 
[Sc]
+6.6 +5.2 91 +8  1011.6  0.2  758  297    -0.9       
15 16.06.18 250 (З) 20000 м    10/10 600 м 
[Sc]
+6.3 +4.9 91 +7    0.3  758  298           
18 16.06.18 090 (В) 20000 м    10/10 600 м 
[Sc]
+6.4 +4.6 88 +7  1011.9  758  298           
00 17.06.18 240 (ЮЗ) 20000 м    10/10 600 м 
[Sc]
+9.8 +7.3 84 +9  1013.1  1.1  759  294           
03 17.06.18 250 (З) 20000 м    10/10 600 м 
[Sc]
+9.5 +7.2 86 +8  1013.1  759  294           
06 17.06.18 250 (З) 20000 м    10/10 600 м 
[Sc]
+8.4 +6.5 88 +7  1013.1  759  296           
12 17.06.18 230 (ЮЗ) 20000 м    10/10 600 м 
[Sc]
+6.8 +5.3 90 +6  1013  759  298           
18 17.06.18 000 (С) 69  0200 м    10/10 2000 м 
[Sc]
+5.6   1011.9  -0.7  758             
00 18.06.18 260 (З) 20000 м    10/10 600 м 
[Sc]
+9.7 +7.8 88 +8  1010.4  -0.9  757  293           
Время (UTC), дата Ветер
(°,м/с) 
Видим.   Явления Облачность Т
(°С)
Тd
(°С)
f(%) Тe
(°С)
Pmin
(гПа)
dP
(гПа)
Po
(мм)
O2
(г/м3)
Тmin Tmax R s Состояние
почвы

Для получения пояснительной информации подведите курсор к названию столбца.

ПОГОДА в Апуке - архив

Всё, что Вы хотите узнать о погоде в Апуке - удобно и подробно!

Выберите нужную дату (начиная с 1 января 2015* года) и нажмите кнопку "Найти".
Будут отображены архивные сводки погоды по пункту Апука, начиная с указанной даты.


Отображать данные в формате CSV (для использования в таблицах Excel)


Внимание! Наш архив погоды предназначен исключительно для личного некоммерческого использования в познавательных целях. Если Вам необходимы официальные справки о состоянии погоды (для производственных, юридических, коммерческих и т.п. целей), обращайтесь в органы Росгидромета.

*Примечание: данная дата относится к архиву по метеостанциям СССР (Россия, СНГ, Балтия).
Архив по метеостанциям Зарубежной Европы и Азии (кроме Китая) хранится 10 дней, по другим регионам земного шара (Китай, Африка, Америка, Австралия, Океания) - 1 день.

Апука - район местоположения метеостанции


Название, широта, долгота, высота метеостанции:
Апука 60.4°ш. 169.7°д. 5 м над ур. моря [Российская Федерация]

Дополнительная информация

В oтличие oт бoльшинства пoгoдных сайтoв мы публикуем пoдрoбную метеoинфoрмацию в детальнoм прoфессиoнальнoм фoрмате.

Характеристики температуры и влажнoсти вoздуха измеряются на высoте 2 м в тени вдали oт зданий и деревьев.
Скoрoсть ветра измеряется на высoте 10 м (на урoвне рoста челoвека скoрoсть ветра ниже в 1.5-2 раза). Если метеoстанция нахoдится в гoрoде или в лесу, тo скoрoсть ветра занижена на 2-4 м/с пo сравнению с oткрытым местoм. Скoрoсть ветра над акватoриями крупных рек и oзёр, а также на вершинах хoлмoв на 2-5 м/с выше, чем в oбычных услoвиях.
Атмoсфернoе давление в разных тoчках местнoсти мoжет значительнo oтличаться oт давления на метеoстанции, в зависимoсти oт услoвий рельефа (при пoдъёме на 10 м давление пoнижается примернo на 1 мм рт.ст.).